Regional Weather Roundup
Issued by NWS Newport/Morehead, NC

Current Version | Previous Version | Graphics & Text | Print | Product List | Glossary On
Versions: 1 2 3 4 5 6 7 8 9 10 11 12 13 14 15 16 17 18 19 20 21 22 23 24 25 26 27 28 29 30 31 32 33 34 35 36 37 38 39 40 41 42 43 44 45 46 47 48 49 50
000 ASUS42 KMHX 210213 RWRMHX WEATHER ROUNDUP FOR EASTERN NORTH CAROLINA NATIONAL WEATHER SERVICE NEWPORT/MOREHEAD CITY NC 1000 PM EDT FRI APR 20 2018 NOTE: "FAIR" INDICATES FEW OR NO CLOUDS BELOW 12,000 FEET WITH NO SIGNIFICANT WEATHER AND/OR OBSTRUCTIONS TO VISIBILITY NCZ015>017-031-032-045>047-102-103-210300- NORTH COAST CITY SKY/WX TMP DP RH WIND PRES REMARKS EDENTON FAIR 51 42 71 SE6 30.36R ELIZABETH CITY FAIR 48 38 68 E8 30.36R KITTY HAWK FAIR 45 34 66 CALM 30.35R MANTEO FAIR 45 35 67 CALM 30.37R $$ NCZ045>047-081-094-103-104-210300- CENTRAL COAST CITY SKY/WX TMP DP RH WIND PRES REMARKS FRISCO FAIR 46 38 73 NE6 30.36R $$ NCZ095-097-098-100-101-210300- SOUTHERN COAST CITY SKY/WX TMP DP RH WIND PRES REMARKS BEAUFORT FAIR 52 42 69 E3 30.35R CEDAR ISLAND NOT AVBL JACKSONVILLE FAIR 50 42 74 CALM 30.34R PINEY ISLAND NOT AVBL WILMINGTON FAIR 49 41 74 CALM 30.35R $$ NCZ011>013-027>030-043-044-078>080-089-090>093-098-210300- COASTAL PLAIN CITY SKY/WX TMP DP RH WIND PRES REMARKS AHOSKIE FAIR 43 34 71 CALM 30.35R CLINTON FAIR 49 39 69 CALM 30.34R ELIZABETHTOWN FAIR 52 35 52 MISG 30.33R GOLDSBORO FAIR 47 36 65 E3 30.32R GREENVILLE FAIR 46 36 66 CALM 30.35R HAVELOCK CLEAR 48 42 80 E6 30.36 KENANSVILLE FAIR 43 37 81 CALM 30.34R KINSTON FAIR 46 35 64 CALM 30.35R NEW BERN FAIR 45 38 76 E3 30.36R RICHLANDS FAIR 45 38 76 CALM 30.35R ROCKY MOUNT FAIR 45 34 65 CALM 30.34R WASHINGTON FAIR 47 36 64 CALM 30.35R WHITEVILLE FAIR 53 41 64 CALM 30.33R $$ AMZ130-135-150-152-154-156-158-170-250-252-270-ANZ085-086-088-633-658-670-210300- MARINE OBSERVATIONS STATION/POSITION TIME TEMP WIND PRES WAVE SWELL AIR SEA DIR/SP/G HT/PER HT/PER (UTC) (F) (DEG/KT/KT) (MB) (FT/S) (FT/S) CHESAPEAKE LIGHT NOT AVBL 64 E VA BEACH 0150 47 48 70/ 2/ 2 1028.3 4/ 8 3/ 8 DUCK 0142 48 52 110/ 8/ 10 1027.5 2 E DUCK 0200 51 N/A 3/ 6 OREGON INLET 0142 47 54 60/ 7/ 11 1027.8 13E OREGON INLT 0148 50 N/A 3/ 6 3/ 6 HATTERAS CG 0142 49 61 70/ 5/ 6 1027.8 DIAMOND BUOY 0200 54 70 40/ 12/ 16 1028.0 CAPE LOOKOUT 0200 60/ 8/ 9 1027.8 BEAUFORT LAB 0142 54 63 80/ 4/ 5 1027.6 30 SE NEW RVR IN 0108 58 66 120/ 6/ 8 1026.9 30 SE NEW RVR IN 0200 66 N/A 2/ 9 27 SE WRIGHTSVLE 0108 59 66 100/ 10/ 14 1026.7 5 SE WRIGHTSVLE 0108 58 60 160/ 2/ 6 1026.1 225 S CAPE HAT 0200 63 72 30/ 16/ 21 1025.3 41 SE CHARLESTON 0200 62 67 70/ 14/ 17 1026.3 $$

USA.gov is the U.S. government's official web portal to all federal, state and local government web resources and services.